owner,sensor,date,latitude,longitude,vertical_datum,sea_water_temperature,qcFlag 
WAVCIS,ioos:station:WAVCIS:CSI16:1,2010-02-01T00:00:00Z,29.4012,-89.0355,10.0,13.863,11111222 
WAVCIS,ioos:station:WAVCIS:CSI16:1,2010-02-01T00:15:00Z,29.4012,-89.0355,10.0,13.86,11111222 
WAVCIS,ioos:station:WAVCIS:CSI16:1,2010-02-01T00:30:00Z,29.4012,-89.0355,10.0,13.833,11111222 
WAVCIS,ioos:station:WAVCIS:CSI16:1,2010-02-01T00:45:00Z,29.4012,-89.0355,10.0,13.809,11111222 
WAVCIS,ioos:station:WAVCIS:CSI16:1,2010-02-01T01:00:00Z,29.4012,-89.0355,10.0,13.793,11111222 
WAVCIS,ioos:station:WAVCIS:CSI16:1,2010-02-01T01:15:00Z,29.4012,-89.0355,10.0,13.794,11111222 
WAVCIS,ioos:station:WAVCIS:CSI16:1,2010-02-01T01:30:00Z,29.4012,-89.0355,10.0,13.829,11111222 
WAVCIS,ioos:station:WAVCIS:CSI16:1,2010-02-01T01:45:00Z,29.4012,-89.0355,10.0,13.884,11111222 
WAVCIS,ioos:station:WAVCIS:CSI16:1,2010-02-01T02:00:00Z,29.4012,-89.0355,10.0,13.891,11111222 
WAVCIS,ioos:station:WAVCIS:CSI16:1,2010-02-01T02:15:00Z,29.4012,-89.0355,10.0,13.877,11111222 
WAVCIS,ioos:station:WAVCIS:CSI16:1,2010-02-01T02:30:00Z,29.4012,-89.0355,10.0,13.896,11111222 
WAVCIS,ioos:station:WAVCIS:CSI16:1,2010-02-01T02:45:00Z,29.4012,-89.0355,10.0,13.945,11111222 
WAVCIS,ioos:station:WAVCIS:CSI16:1,2010-02-01T03:00:00Z,29.4012,-89.0355,10.0,14.007,11111222 
WAVCIS,ioos:station:WAVCIS:CSI16:1,2010-02-01T03:15:00Z,29.4012,-89.0355,10.0,14.122,11111222 
WAVCIS,ioos:station:WAVCIS:CSI16:1,2010-02-01T03:30:00Z,29.4012,-89.0355,10.0,14.157,11111222 
WAVCIS,ioos:station:WAVCIS:CSI16:1,2010-02-01T03:45:00Z,29.4012,-89.0355,10.0,14.174,11111222 
WAVCIS,ioos:station:WAVCIS:CSI16:1,2010-02-01T04:00:00Z,29.4012,-89.0355,10.0,14.184,11111222 
WAVCIS,ioos:station:WAVCIS:CSI16:1,2010-02-01T04:15:00Z,29.4012,-89.0355,10.0,14.2,11111222 
WAVCIS,ioos:station:WAVCIS:CSI16:1,2010-02-01T04:30:00Z,29.4012,-89.0355,10.0,14.244,11111222 
WAVCIS,ioos:station:WAVCIS:CSI16:1,2010-02-01T04:45:00Z,29.4012,-89.0355,10.0,14.274,11111222 
WAVCIS,ioos:station:WAVCIS:CSI16:1,2010-02-01T05:00:00Z,29.4012,-89.0355,10.0,14.305,11111222 
WAVCIS,ioos:station:WAVCIS:CSI16:1,2010-02-01T05:15:00Z,29.4012,-89.0355,10.0,14.312,11111222 
WAVCIS,ioos:station:WAVCIS:CSI16:1,2010-02-01T05:30:00Z,29.4012,-89.0355,10.0,14.316,11111222 
WAVCIS,ioos:station:WAVCIS:CSI16:1,2010-02-01T05:45:00Z,29.4012,-89.0355,10.0,14.333,11111222 
WAVCIS,ioos:station:WAVCIS:CSI16:1,2010-02-01T06:00:00Z,29.4012,-89.0355,10.0,14.35,11111222 
WAVCIS,ioos:station:WAVCIS:CSI16:1,2010-02-01T06:15:00Z,29.4012,-89.0355,10.0,14.365,11111222 
WAVCIS,ioos:station:WAVCIS:CSI16:1,2010-02-01T06:30:00Z,29.4012,-89.0355,10.0,14.391,11111222 
WAVCIS,ioos:station:WAVCIS:CSI16:1,2010-02-01T06:45:00Z,29.4012,-89.0355,10.0,14.392,11111222 
WAVCIS,ioos:station:WAVCIS:CSI16:1,2010-02-01T07:00:00Z,29.4012,-89.0355,10.0,14.394,11111222 
WAVCIS,ioos:station:WAVCIS:CSI16:1,2010-02-01T07:15:00Z,29.4012,-89.0355,10.0,14.375,11111222 
WAVCIS,ioos:station:WAVCIS:CSI16:1,2010-02-01T07:30:00Z,29.4012,-89.0355,10.0,14.378,11111222 
WAVCIS,ioos:station:WAVCIS:CSI16:1,2010-02-01T07:45:00Z,29.4012,-89.0355,10.0,14.347,11111222 
WAVCIS,ioos:station:WAVCIS:CSI16:1,2010-02-01T08:00:00Z,29.4012,-89.0355,10.0,14.317,11111222 
WAVCIS,ioos:station:WAVCIS:CSI16:1,2010-02-01T08:15:00Z,29.4012,-89.0355,10.0,14.311,11111222 
WAVCIS,ioos:station:WAVCIS:CSI16:1,2010-02-01T08:30:00Z,29.4012,-89.0355,10.0,14.217,11111222 
WAVCIS,ioos:station:WAVCIS:CSI16:1,2010-02-01T08:45:00Z,29.4012,-89.0355,10.0,14.174,11111222 
WAVCIS,ioos:station:WAVCIS:CSI16:1,2010-02-01T09:00:00Z,29.4012,-89.0355,10.0,14.143,11111222 
WAVCIS,ioos:station:WAVCIS:CSI16:1,2010-02-01T09:15:00Z,29.4012,-89.0355,10.0,14.124,11111222 
WAVCIS,ioos:station:WAVCIS:CSI16:1,2010-02-01T09:30:00Z,29.4012,-89.0355,10.0,14.054,11111222 
WAVCIS,ioos:station:WAVCIS:CSI16:1,2010-02-01T09:45:00Z,29.4012,-89.0355,10.0,14.041,11111222 
WAVCIS,ioos:station:WAVCIS:CSI16:1,2010-02-01T10:00:00Z,29.4012,-89.0355,10.0,14.035,11111222 
WAVCIS,ioos:station:WAVCIS:CSI16:1,2010-02-01T10:15:00Z,29.4012,-89.0355,10.0,13.906,11111222 
WAVCIS,ioos:station:WAVCIS:CSI16:1,2010-02-01T10:30:00Z,29.4012,-89.0355,10.0,13.921,11111222 
WAVCIS,ioos:station:WAVCIS:CSI16:1,2010-02-01T10:45:00Z,29.4012,-89.0355,10.0,13.789,11111222 
WAVCIS,ioos:station:WAVCIS:CSI16:1,2010-02-01T11:00:00Z,29.4012,-89.0355,10.0,13.644,11111222 
WAVCIS,ioos:station:WAVCIS:CSI16:1,2010-02-01T11:15:00Z,29.4012,-89.0355,10.0,13.54,11111222 
WAVCIS,ioos:station:WAVCIS:CSI16:1,2010-02-01T11:30:00Z,29.4012,-89.0355,10.0,13.518,11111222 
WAVCIS,ioos:station:WAVCIS:CSI16:1,2010-02-01T11:45:00Z,29.4012,-89.0355,10.0,13.43,11111222 
WAVCIS,ioos:station:WAVCIS:CSI16:1,2010-02-01T12:00:00Z,29.4012,-89.0355,10.0,12.591,11111222 
WAVCIS,ioos:station:WAVCIS:CSI16:1,2010-02-01T12:15:00Z,29.4012,-89.0355,10.0,12.619,11111222 
WAVCIS,ioos:station:WAVCIS:CSI16:1,2010-02-01T12:30:00Z,29.4012,-89.0355,10.0,12.621,11111222 
WAVCIS,ioos:station:WAVCIS:CSI16:1,2010-02-01T12:45:00Z,29.4012,-89.0355,10.0,12.658,11111222 
WAVCIS,ioos:station:WAVCIS:CSI16:1,2010-02-01T13:00:00Z,29.4012,-89.0355,10.0,12.709,11111222 
WAVCIS,ioos:station:WAVCIS:CSI16:1,2010-02-01T13:15:00Z,29.4012,-89.0355,10.0,12.876,11111222 
WAVCIS,ioos:station:WAVCIS:CSI16:1,2010-02-01T13:30:00Z,29.4012,-89.0355,10.0,12.938,11111222 
WAVCIS,ioos:station:WAVCIS:CSI16:1,2010-02-01T13:45:00Z,29.4012,-89.0355,10.0,13.05,11111222 
WAVCIS,ioos:station:WAVCIS:CSI16:1,2010-02-01T14:00:00Z,29.4012,-89.0355,10.0,13.147,11111222 
WAVCIS,ioos:station:WAVCIS:CSI16:1,2010-02-01T14:15:00Z,29.4012,-89.0355,10.0,13.237,11111222 
WAVCIS,ioos:station:WAVCIS:CSI16:1,2010-02-01T14:30:00Z,29.4012,-89.0355,10.0,13.263,11111222 
WAVCIS,ioos:station:WAVCIS:CSI16:1,2010-02-01T14:45:00Z,29.4012,-89.0355,10.0,13.336,11111222 
WAVCIS,ioos:station:WAVCIS:CSI16:1,2010-02-01T15:00:00Z,29.4012,-89.0355,10.0,13.393,11111222 
WAVCIS,ioos:station:WAVCIS:CSI16:1,2010-02-01T15:15:00Z,29.4012,-89.0355,10.0,13.527,11111222 
WAVCIS,ioos:station:WAVCIS:CSI16:1,2010-02-01T15:30:00Z,29.4012,-89.0355,10.0,13.759,11111222 
WAVCIS,ioos:station:WAVCIS:CSI16:1,2010-02-01T15:45:00Z,29.4012,-89.0355,10.0,13.81,11111222 
WAVCIS,ioos:station:WAVCIS:CSI16:1,2010-02-01T16:00:00Z,29.4012,-89.0355,10.0,13.84,11111222 
WAVCIS,ioos:station:WAVCIS:CSI16:1,2010-02-01T16:15:00Z,29.4012,-89.0355,10.0,13.903,11111222 
WAVCIS,ioos:station:WAVCIS:CSI16:1,2010-02-01T16:30:00Z,29.4012,-89.0355,10.0,13.913,11111222 
WAVCIS,ioos:station:WAVCIS:CSI16:1,2010-02-01T16:45:00Z,29.4012,-89.0355,10.0,13.883,11111222 
WAVCIS,ioos:station:WAVCIS:CSI16:1,2010-02-01T17:00:00Z,29.4012,-89.0355,10.0,13.9,11111222 
WAVCIS,ioos:station:WAVCIS:CSI16:1,2010-02-01T17:15:00Z,29.4012,-89.0355,10.0,13.929,11111222 
WAVCIS,ioos:station:WAVCIS:CSI16:1,2010-02-01T17:30:00Z,29.4012,-89.0355,10.0,14.013,11111222 
WAVCIS,ioos:station:WAVCIS:CSI16:1,2010-02-01T17:45:00Z,29.4012,-89.0355,10.0,14.066,11111222 
WAVCIS,ioos:station:WAVCIS:CSI16:1,2010-02-01T18:00:00Z,29.4012,-89.0355,10.0,14.123,11111222 
WAVCIS,ioos:station:WAVCIS:CSI16:1,2010-02-01T18:15:00Z,29.4012,-89.0355,10.0,14.223,11111222 
WAVCIS,ioos:station:WAVCIS:CSI16:1,2010-02-01T18:30:00Z,29.4012,-89.0355,10.0,14.056,11111222 
WAVCIS,ioos:station:WAVCIS:CSI16:1,2010-02-01T18:45:00Z,29.4012,-89.0355,10.0,14.064,11111222 
WAVCIS,ioos:station:WAVCIS:CSI16:1,2010-02-01T19:00:00Z,29.4012,-89.0355,10.0,14.131,11111222 
WAVCIS,ioos:station:WAVCIS:CSI16:1,2010-02-01T19:15:00Z,29.4012,-89.0355,10.0,14.235,11111222 
WAVCIS,ioos:station:WAVCIS:CSI16:1,2010-02-01T19:30:00Z,29.4012,-89.0355,10.0,14.29,11111222 
WAVCIS,ioos:station:WAVCIS:CSI16:1,2010-02-01T19:45:00Z,29.4012,-89.0355,10.0,14.335,11111222 
WAVCIS,ioos:station:WAVCIS:CSI16:1,2010-02-01T20:00:00Z,29.4012,-89.0355,10.0,14.382,11111222 
WAVCIS,ioos:station:WAVCIS:CSI16:1,2010-02-01T20:15:00Z,29.4012,-89.0355,10.0,14.353,11111222 
WAVCIS,ioos:station:WAVCIS:CSI16:1,2010-02-01T20:30:00Z,29.4012,-89.0355,10.0,14.394,11111222 
WAVCIS,ioos:station:WAVCIS:CSI16:1,2010-02-01T20:45:00Z,29.4012,-89.0355,10.0,14.434,11111222 
WAVCIS,ioos:station:WAVCIS:CSI16:1,2010-02-01T21:00:00Z,29.4012,-89.0355,10.0,14.385,11111222 
WAVCIS,ioos:station:WAVCIS:CSI16:1,2010-02-01T21:15:00Z,29.4012,-89.0355,10.0,14.301,11111222 
WAVCIS,ioos:station:WAVCIS:CSI16:1,2010-02-01T21:30:00Z,29.4012,-89.0355,10.0,14.308,11111222 
WAVCIS,ioos:station:WAVCIS:CSI16:1,2010-02-01T21:45:00Z,29.4012,-89.0355,10.0,14.372,11111222 
WAVCIS,ioos:station:WAVCIS:CSI16:1,2010-02-01T22:00:00Z,29.4012,-89.0355,10.0,14.383,11111222 
WAVCIS,ioos:station:WAVCIS:CSI16:1,2010-02-01T22:15:00Z,29.4012,-89.0355,10.0,14.419,11111222 
WAVCIS,ioos:station:WAVCIS:CSI16:1,2010-02-01T22:30:00Z,29.4012,-89.0355,10.0,14.415,11111222 
WAVCIS,ioos:station:WAVCIS:CSI16:1,2010-02-01T22:45:00Z,29.4012,-89.0355,10.0,14.519,11111222 
WAVCIS,ioos:station:WAVCIS:CSI16:1,2010-02-01T23:00:00Z,29.4012,-89.0355,10.0,14.675,11111222 
WAVCIS,ioos:station:WAVCIS:CSI16:1,2010-02-01T23:15:00Z,29.4012,-89.0355,10.0,14.731,11111222 
WAVCIS,ioos:station:WAVCIS:CSI16:1,2010-02-01T23:30:00Z,29.4012,-89.0355,10.0,14.762,11111222 
WAVCIS,ioos:station:WAVCIS:CSI16:1,2010-02-01T23:45:00Z,29.4012,-89.0355,10.0,14.56,11111222 
WAVCIS,ioos:station:WAVCIS:CSI16:1,2010-02-02T00:00:00Z,29.4012,-89.0355,10.0,14.438,11111222 
WAVCIS,ioos:station:WAVCIS:CSI16:1,2010-02-02T00:15:00Z,29.4012,-89.0355,10.0,14.386,11111222 
WAVCIS,ioos:station:WAVCIS:CSI16:1,2010-02-02T00:30:00Z,29.4012,-89.0355,10.0,14.346,11111222 
WAVCIS,ioos:station:WAVCIS:CSI16:1,2010-02-02T00:45:00Z,29.4012,-89.0355,10.0,14.254,11111222 
WAVCIS,ioos:station:WAVCIS:CSI16:1,2010-02-02T01:00:00Z,29.4012,-89.0355,10.0,14.208,11111222 
WAVCIS,ioos:station:WAVCIS:CSI16:1,2010-02-02T01:15:00Z,29.4012,-89.0355,10.0,14.148,11111222 
WAVCIS,ioos:station:WAVCIS:CSI16:1,2010-02-02T01:30:00Z,29.4012,-89.0355,10.0,13.982,11111222 
WAVCIS,ioos:station:WAVCIS:CSI16:1,2010-02-02T01:45:00Z,29.4012,-89.0355,10.0,12.94,11111222 
WAVCIS,ioos:station:WAVCIS:CSI16:1,2010-02-02T02:00:00Z,29.4012,-89.0355,10.0,13.025,11111222 
WAVCIS,ioos:station:WAVCIS:CSI16:1,2010-02-02T02:15:00Z,29.4012,-89.0355,10.0,12.92,11111222 
WAVCIS,ioos:station:WAVCIS:CSI16:1,2010-02-02T02:30:00Z,29.4012,-89.0355,10.0,12.905,11111222 
WAVCIS,ioos:station:WAVCIS:CSI16:1,2010-02-02T02:45:00Z,29.4012,-89.0355,10.0,12.819,11111222 
WAVCIS,ioos:station:WAVCIS:CSI16:1,2010-02-02T03:00:00Z,29.4012,-89.0355,10.0,12.85,11111222 
WAVCIS,ioos:station:WAVCIS:CSI16:1,2010-02-02T03:15:00Z,29.4012,-89.0355,10.0,12.971,11111222 
WAVCIS,ioos:station:WAVCIS:CSI16:1,2010-02-02T03:30:00Z,29.4012,-89.0355,10.0,12.916,11111222 
WAVCIS,ioos:station:WAVCIS:CSI16:1,2010-02-02T03:45:00Z,29.4012,-89.0355,10.0,12.871,11111222 
WAVCIS,ioos:station:WAVCIS:CSI16:1,2010-02-02T04:00:00Z,29.4012,-89.0355,10.0,12.942,11111222 
WAVCIS,ioos:station:WAVCIS:CSI16:1,2010-02-02T04:15:00Z,29.4012,-89.0355,10.0,12.955,11111222 
WAVCIS,ioos:station:WAVCIS:CSI16:1,2010-02-02T04:30:00Z,29.4012,-89.0355,10.0,13.034,11111222 
WAVCIS,ioos:station:WAVCIS:CSI16:1,2010-02-02T04:45:00Z,29.4012,-89.0355,10.0,13.086,11111222 
WAVCIS,ioos:station:WAVCIS:CSI16:1,2010-02-02T05:00:00Z,29.4012,-89.0355,10.0,13.079,11111222 
WAVCIS,ioos:station:WAVCIS:CSI16:1,2010-02-02T05:15:00Z,29.4012,-89.0355,10.0,13.1,11111222 
WAVCIS,ioos:station:WAVCIS:CSI16:1,2010-02-02T05:30:00Z,29.4012,-89.0355,10.0,13.116,11111222 
WAVCIS,ioos:station:WAVCIS:CSI16:1,2010-02-02T05:45:00Z,29.4012,-89.0355,10.0,13.114,11111222 
WAVCIS,ioos:station:WAVCIS:CSI16:1,2010-02-02T06:00:00Z,29.4012,-89.0355,10.0,13.15,11111222 
WAVCIS,ioos:station:WAVCIS:CSI16:1,2010-02-02T06:15:00Z,29.4012,-89.0355,10.0,13.141,11111222 
WAVCIS,ioos:station:WAVCIS:CSI16:1,2010-02-02T06:30:00Z,29.4012,-89.0355,10.0,13.127,11111222 
WAVCIS,ioos:station:WAVCIS:CSI16:1,2010-02-02T06:45:00Z,29.4012,-89.0355,10.0,13.136,11111222 
WAVCIS,ioos:station:WAVCIS:CSI16:1,2010-02-02T07:00:00Z,29.4012,-89.0355,10.0,13.21,11111222 
WAVCIS,ioos:station:WAVCIS:CSI16:1,2010-02-02T07:15:00Z,29.4012,-89.0355,10.0,13.263,11111222 
WAVCIS,ioos:station:WAVCIS:CSI16:1,2010-02-02T07:30:00Z,29.4012,-89.0355,10.0,13.266,11111222 
WAVCIS,ioos:station:WAVCIS:CSI16:1,2010-02-02T07:45:00Z,29.4012,-89.0355,10.0,13.262,11111222 
WAVCIS,ioos:station:WAVCIS:CSI16:1,2010-02-02T08:00:00Z,29.4012,-89.0355,10.0,13.159,11111222 
WAVCIS,ioos:station:WAVCIS:CSI16:1,2010-02-02T08:15:00Z,29.4012,-89.0355,10.0,13.07,11111222 
WAVCIS,ioos:station:WAVCIS:CSI16:1,2010-02-02T08:30:00Z,29.4012,-89.0355,10.0,12.992,11111222 
WAVCIS,ioos:station:WAVCIS:CSI16:1,2010-02-02T08:45:00Z,29.4012,-89.0355,10.0,12.985,11111222 
WAVCIS,ioos:station:WAVCIS:CSI16:1,2010-02-02T09:00:00Z,29.4012,-89.0355,10.0,12.995,11111222 
WAVCIS,ioos:station:WAVCIS:CSI16:1,2010-02-02T09:15:00Z,29.4012,-89.0355,10.0,12.952,11111222 
WAVCIS,ioos:station:WAVCIS:CSI16:1,2010-02-02T09:30:00Z,29.4012,-89.0355,10.0,12.927,11111222 
WAVCIS,ioos:station:WAVCIS:CSI16:1,2010-02-02T09:45:00Z,29.4012,-89.0355,10.0,12.956,11111222 
WAVCIS,ioos:station:WAVCIS:CSI16:1,2010-02-02T10:00:00Z,29.4012,-89.0355,10.0,13.013,11111222 
WAVCIS,ioos:station:WAVCIS:CSI16:1,2010-02-02T10:15:00Z,29.4012,-89.0355,10.0,12.875,11111222 
WAVCIS,ioos:station:WAVCIS:CSI16:1,2010-02-02T10:30:00Z,29.4012,-89.0355,10.0,12.782,11111222 
WAVCIS,ioos:station:WAVCIS:CSI16:1,2010-02-02T10:45:00Z,29.4012,-89.0355,10.0,12.729,11111222 
WAVCIS,ioos:station:WAVCIS:CSI16:1,2010-02-02T11:00:00Z,29.4012,-89.0355,10.0,12.738,11111222 
WAVCIS,ioos:station:WAVCIS:CSI16:1,2010-02-02T11:15:00Z,29.4012,-89.0355,10.0,12.67,11111222 
WAVCIS,ioos:station:WAVCIS:CSI16:1,2010-02-02T11:30:00Z,29.4012,-89.0355,10.0,12.693,11111222 
WAVCIS,ioos:station:WAVCIS:CSI16:1,2010-02-02T11:45:00Z,29.4012,-89.0355,10.0,12.699,11111222 
WAVCIS,ioos:station:WAVCIS:CSI16:1,2010-02-02T12:00:00Z,29.4012,-89.0355,10.0,12.678,11111222 
WAVCIS,ioos:station:WAVCIS:CSI16:1,2010-02-02T12:15:00Z,29.4012,-89.0355,10.0,12.627,11111222 
WAVCIS,ioos:station:WAVCIS:CSI16:1,2010-02-02T12:30:00Z,29.4012,-89.0355,10.0,12.557,11111222 
WAVCIS,ioos:station:WAVCIS:CSI16:1,2010-02-02T12:45:00Z,29.4012,-89.0355,10.0,12.542,11111222 
WAVCIS,ioos:station:WAVCIS:CSI16:1,2010-02-02T13:00:00Z,29.4012,-89.0355,10.0,12.465,11111222 
WAVCIS,ioos:station:WAVCIS:CSI16:1,2010-02-02T13:15:00Z,29.4012,-89.0355,10.0,12.505,11111222 
WAVCIS,ioos:station:WAVCIS:CSI16:1,2010-02-02T13:30:00Z,29.4012,-89.0355,10.0,12.433,11111222 
WAVCIS,ioos:station:WAVCIS:CSI16:1,2010-02-02T13:45:00Z,29.4012,-89.0355,10.0,12.397,11111222 
WAVCIS,ioos:station:WAVCIS:CSI16:1,2010-02-02T14:00:00Z,29.4012,-89.0355,10.0,12.288,11111222 
WAVCIS,ioos:station:WAVCIS:CSI16:1,2010-02-02T14:15:00Z,29.4012,-89.0355,10.0,12.228,11111222 
WAVCIS,ioos:station:WAVCIS:CSI16:1,2010-02-02T14:30:00Z,29.4012,-89.0355,10.0,12.297,11111222 
WAVCIS,ioos:station:WAVCIS:CSI16:1,2010-02-02T14:45:00Z,29.4012,-89.0355,10.0,12.311,11111222 
WAVCIS,ioos:station:WAVCIS:CSI16:1,2010-02-02T15:00:00Z,29.4012,-89.0355,10.0,12.33,11111222 
WAVCIS,ioos:station:WAVCIS:CSI16:1,2010-02-02T15:15:00Z,29.4012,-89.0355,10.0,12.322,11111222 
WAVCIS,ioos:station:WAVCIS:CSI16:1,2010-02-02T15:30:00Z,29.4012,-89.0355,10.0,12.366,11111222 
WAVCIS,ioos:station:WAVCIS:CSI16:1,2010-02-02T15:45:00Z,29.4012,-89.0355,10.0,12.387,11111222 
WAVCIS,ioos:station:WAVCIS:CSI16:1,2010-02-02T16:00:00Z,29.4012,-89.0355,10.0,12.474,11111222 
WAVCIS,ioos:station:WAVCIS:CSI16:1,2010-02-02T16:15:00Z,29.4012,-89.0355,10.0,12.519,11111222 
WAVCIS,ioos:station:WAVCIS:CSI16:1,2010-02-02T16:30:00Z,29.4012,-89.0355,10.0,12.581,11111222 
WAVCIS,ioos:station:WAVCIS:CSI16:1,2010-02-02T16:45:00Z,29.4012,-89.0355,10.0,12.64,11111222 
WAVCIS,ioos:station:WAVCIS:CSI16:1,2010-02-02T17:00:00Z,29.4012,-89.0355,10.0,12.686,11111222 
WAVCIS,ioos:station:WAVCIS:CSI16:1,2010-02-02T17:15:00Z,29.4012,-89.0355,10.0,12.899,11111222 
WAVCIS,ioos:station:WAVCIS:CSI16:1,2010-02-02T17:30:00Z,29.4012,-89.0355,10.0,13.116,11111222 
WAVCIS,ioos:station:WAVCIS:CSI16:1,2010-02-02T17:45:00Z,29.4012,-89.0355,10.0,13.262,11111222 
WAVCIS,ioos:station:WAVCIS:CSI16:1,2010-02-02T18:00:00Z,29.4012,-89.0355,10.0,13.393,11111222 
WAVCIS,ioos:station:WAVCIS:CSI16:1,2010-02-02T18:15:00Z,29.4012,-89.0355,10.0,13.524,11111222 
WAVCIS,ioos:station:WAVCIS:CSI16:1,2010-02-02T18:30:00Z,29.4012,-89.0355,10.0,13.696,11111222 
WAVCIS,ioos:station:WAVCIS:CSI16:1,2010-02-02T18:45:00Z,29.4012,-89.0355,10.0,13.763,11111222 
WAVCIS,ioos:station:WAVCIS:CSI16:1,2010-02-02T19:00:00Z,29.4012,-89.0355,10.0,13.936,11111222 
WAVCIS,ioos:station:WAVCIS:CSI16:1,2010-02-02T19:15:00Z,29.4012,-89.0355,10.0,13.906,11111222 
WAVCIS,ioos:station:WAVCIS:CSI16:1,2010-02-02T19:30:00Z,29.4012,-89.0355,10.0,13.997,11111222 
WAVCIS,ioos:station:WAVCIS:CSI16:1,2010-02-02T19:45:00Z,29.4012,-89.0355,10.0,13.967,11111222 
WAVCIS,ioos:station:WAVCIS:CSI16:1,2010-02-02T20:00:00Z,29.4012,-89.0355,10.0,13.976,11111222 
WAVCIS,ioos:station:WAVCIS:CSI16:1,2010-02-02T20:15:00Z,29.4012,-89.0355,10.0,14.086,11111222 
WAVCIS,ioos:station:WAVCIS:CSI16:1,2010-02-02T20:30:00Z,29.4012,-89.0355,10.0,14.087,11111222 
WAVCIS,ioos:station:WAVCIS:CSI16:1,2010-02-02T20:45:00Z,29.4012,-89.0355,10.0,14.134,11111222 
WAVCIS,ioos:station:WAVCIS:CSI16:1,2010-02-02T21:00:00Z,29.4012,-89.0355,10.0,14.102,11111222 
WAVCIS,ioos:station:WAVCIS:CSI16:1,2010-02-02T21:15:00Z,29.4012,-89.0355,10.0,14.219,11111222 
WAVCIS,ioos:station:WAVCIS:CSI16:1,2010-02-02T21:30:00Z,29.4012,-89.0355,10.0,14.166,11111222 
WAVCIS,ioos:station:WAVCIS:CSI16:1,2010-02-02T21:45:00Z,29.4012,-89.0355,10.0,14.019,11111222 
WAVCIS,ioos:station:WAVCIS:CSI16:1,2010-02-02T22:00:00Z,29.4012,-89.0355,10.0,13.926,11111222 
WAVCIS,ioos:station:WAVCIS:CSI16:1,2010-02-02T22:15:00Z,29.4012,-89.0355,10.0,13.837,11111222 
WAVCIS,ioos:station:WAVCIS:CSI16:1,2010-02-02T22:30:00Z,29.4012,-89.0355,10.0,13.628,11111222 
WAVCIS,ioos:station:WAVCIS:CSI16:1,2010-02-02T22:45:00Z,29.4012,-89.0355,10.0,13.323,11111222 
WAVCIS,ioos:station:WAVCIS:CSI16:1,2010-02-02T23:00:00Z,29.4012,-89.0355,10.0,13.292,11111222 
WAVCIS,ioos:station:WAVCIS:CSI16:1,2010-02-02T23:15:00Z,29.4012,-89.0355,10.0,13.392,11111222 
WAVCIS,ioos:station:WAVCIS:CSI16:1,2010-02-02T23:30:00Z,29.4012,-89.0355,10.0,13.2,11111222 
WAVCIS,ioos:station:WAVCIS:CSI16:1,2010-02-02T23:45:00Z,29.4012,-89.0355,10.0,13.106,11111222 
WAVCIS,ioos:station:WAVCIS:CSI16:1,2010-02-03T00:00:00Z,29.4012,-89.0355,10.0,13.282,11111222 
WAVCIS,ioos:station:WAVCIS:CSI16:1,2010-02-03T00:15:00Z,29.4012,-89.0355,10.0,13.237,11111222 
WAVCIS,ioos:station:WAVCIS:CSI16:1,2010-02-03T00:30:00Z,29.4012,-89.0355,10.0,13.386,11111222 
WAVCIS,ioos:station:WAVCIS:CSI16:1,2010-02-03T00:45:00Z,29.4012,-89.0355,10.0,13.349,11111222 
WAVCIS,ioos:station:WAVCIS:CSI16:1,2010-02-03T01:00:00Z,29.4012,-89.0355,10.0,13.33,11111222 
WAVCIS,ioos:station:WAVCIS:CSI16:1,2010-02-03T01:15:00Z,29.4012,-89.0355,10.0,13.013,11111222 
WAVCIS,ioos:station:WAVCIS:CSI16:1,2010-02-03T01:30:00Z,29.4012,-89.0355,10.0,12.967,11111222 
WAVCIS,ioos:station:WAVCIS:CSI16:1,2010-02-03T01:45:00Z,29.4012,-89.0355,10.0,13.108,11111222 
WAVCIS,ioos:station:WAVCIS:CSI16:1,2010-02-03T02:00:00Z,29.4012,-89.0355,10.0,12.976,11111222 
WAVCIS,ioos:station:WAVCIS:CSI16:1,2010-02-03T02:15:00Z,29.4012,-89.0355,10.0,13.025,11111222 
WAVCIS,ioos:station:WAVCIS:CSI16:1,2010-02-03T02:30:00Z,29.4012,-89.0355,10.0,13.062,11111222 
WAVCIS,ioos:station:WAVCIS:CSI16:1,2010-02-03T02:45:00Z,29.4012,-89.0355,10.0,13.132,11111222 
WAVCIS,ioos:station:WAVCIS:CSI16:1,2010-02-03T03:00:00Z,29.4012,-89.0355,10.0,13.16,11111222 
WAVCIS,ioos:station:WAVCIS:CSI16:1,2010-02-03T03:15:00Z,29.4012,-89.0355,10.0,13.151,11111222 
WAVCIS,ioos:station:WAVCIS:CSI16:1,2010-02-03T03:30:00Z,29.4012,-89.0355,10.0,13.189,11111222 
WAVCIS,ioos:station:WAVCIS:CSI16:1,2010-02-03T03:45:00Z,29.4012,-89.0355,10.0,13.058,11111222 
WAVCIS,ioos:station:WAVCIS:CSI16:1,2010-02-03T04:00:00Z,29.4012,-89.0355,10.0,13.042,11111222 
WAVCIS,ioos:station:WAVCIS:CSI16:1,2010-02-03T04:15:00Z,29.4012,-89.0355,10.0,13.076,11111222 
WAVCIS,ioos:station:WAVCIS:CSI16:1,2010-02-03T04:30:00Z,29.4012,-89.0355,10.0,12.904,11111222 
WAVCIS,ioos:station:WAVCIS:CSI16:1,2010-02-03T04:45:00Z,29.4012,-89.0355,10.0,12.922,11111222 
WAVCIS,ioos:station:WAVCIS:CSI16:1,2010-02-03T05:00:00Z,29.4012,-89.0355,10.0,12.917,11111222 
WAVCIS,ioos:station:WAVCIS:CSI16:1,2010-02-03T05:15:00Z,29.4012,-89.0355,10.0,12.816,11111222 
WAVCIS,ioos:station:WAVCIS:CSI16:1,2010-02-03T05:30:00Z,29.4012,-89.0355,10.0,12.747,11111222 
WAVCIS,ioos:station:WAVCIS:CSI16:1,2010-02-03T05:45:00Z,29.4012,-89.0355,10.0,12.608,11111222 
WAVCIS,ioos:station:WAVCIS:CSI16:1,2010-02-03T06:00:00Z,29.4012,-89.0355,10.0,12.567,11111222 
WAVCIS,ioos:station:WAVCIS:CSI16:1,2010-02-03T06:15:00Z,29.4012,-89.0355,10.0,12.59,11111222 
WAVCIS,ioos:station:WAVCIS:CSI16:1,2010-02-03T06:30:00Z,29.4012,-89.0355,10.0,12.534,11111222 
WAVCIS,ioos:station:WAVCIS:CSI16:1,2010-02-03T06:45:00Z,29.4012,-89.0355,10.0,12.527,11111222 
WAVCIS,ioos:station:WAVCIS:CSI16:1,2010-02-03T07:00:00Z,29.4012,-89.0355,10.0,12.298,11111222 
WAVCIS,ioos:station:WAVCIS:CSI16:1,2010-02-03T07:15:00Z,29.4012,-89.0355,10.0,11.743,11111222 
WAVCIS,ioos:station:WAVCIS:CSI16:1,2010-02-03T07:30:00Z,29.4012,-89.0355,10.0,11.918,11111222 
WAVCIS,ioos:station:WAVCIS:CSI16:1,2010-02-03T07:45:00Z,29.4012,-89.0355,10.0,12.2,11111222 
WAVCIS,ioos:station:WAVCIS:CSI16:1,2010-02-03T08:00:00Z,29.4012,-89.0355,10.0,12.166,11111222 
WAVCIS,ioos:station:WAVCIS:CSI16:1,2010-02-03T08:15:00Z,29.4012,-89.0355,10.0,12.482,11111222 
WAVCIS,ioos:station:WAVCIS:CSI16:1,2010-02-03T08:30:00Z,29.4012,-89.0355,10.0,12.605,11111222 
WAVCIS,ioos:station:WAVCIS:CSI16:1,2010-02-03T08:45:00Z,29.4012,-89.0355,10.0,12.769,11111222 
WAVCIS,ioos:station:WAVCIS:CSI16:1,2010-02-03T09:00:00Z,29.4012,-89.0355,10.0,12.861,11111222 
WAVCIS,ioos:station:WAVCIS:CSI16:1,2010-02-03T09:15:00Z,29.4012,-89.0355,10.0,12.978,11111222 
WAVCIS,ioos:station:WAVCIS:CSI16:1,2010-02-03T09:30:00Z,29.4012,-89.0355,10.0,13.066,11111222 
WAVCIS,ioos:station:WAVCIS:CSI16:1,2010-02-03T09:45:00Z,29.4012,-89.0355,10.0,13.145,11111222 
WAVCIS,ioos:station:WAVCIS:CSI16:1,2010-02-03T10:00:00Z,29.4012,-89.0355,10.0,13.213,11111222 
WAVCIS,ioos:station:WAVCIS:CSI16:1,2010-02-03T10:15:00Z,29.4012,-89.0355,10.0,13.285,11111222 
WAVCIS,ioos:station:WAVCIS:CSI16:1,2010-02-03T10:30:00Z,29.4012,-89.0355,10.0,13.342,11111222 
WAVCIS,ioos:station:WAVCIS:CSI16:1,2010-02-03T10:45:00Z,29.4012,-89.0355,10.0,13.373,11111222 
WAVCIS,ioos:station:WAVCIS:CSI16:1,2010-02-03T11:00:00Z,29.4012,-89.0355,10.0,13.437,11111222 
WAVCIS,ioos:station:WAVCIS:CSI16:1,2010-02-03T11:15:00Z,29.4012,-89.0355,10.0,13.45,11111222 
WAVCIS,ioos:station:WAVCIS:CSI16:1,2010-02-03T11:30:00Z,29.4012,-89.0355,10.0,13.462,11111222 
WAVCIS,ioos:station:WAVCIS:CSI16:1,2010-02-03T11:45:00Z,29.4012,-89.0355,10.0,13.481,11111222 
WAVCIS,ioos:station:WAVCIS:CSI16:1,2010-02-03T12:00:00Z,29.4012,-89.0355,10.0,13.509,11111222 
WAVCIS,ioos:station:WAVCIS:CSI16:1,2010-02-03T12:15:00Z,29.4012,-89.0355,10.0,13.483,11111222 
WAVCIS,ioos:station:WAVCIS:CSI16:1,2010-02-03T12:30:00Z,29.4012,-89.0355,10.0,13.516,11111222 
WAVCIS,ioos:station:WAVCIS:CSI16:1,2010-02-03T12:45:00Z,29.4012,-89.0355,10.0,13.478,11111222 
WAVCIS,ioos:station:WAVCIS:CSI16:1,2010-02-03T13:00:00Z,29.4012,-89.0355,10.0,13.465,11111222 
WAVCIS,ioos:station:WAVCIS:CSI16:1,2010-02-03T13:15:00Z,29.4012,-89.0355,10.0,13.46,11111222 
WAVCIS,ioos:station:WAVCIS:CSI16:1,2010-02-03T13:30:00Z,29.4012,-89.0355,10.0,13.455,11111222 
WAVCIS,ioos:station:WAVCIS:CSI16:1,2010-02-03T13:45:00Z,29.4012,-89.0355,10.0,13.476,11111222 
WAVCIS,ioos:station:WAVCIS:CSI16:1,2010-02-03T14:00:00Z,29.4012,-89.0355,10.0,13.479,11111222 
WAVCIS,ioos:station:WAVCIS:CSI16:1,2010-02-03T14:15:00Z,29.4012,-89.0355,10.0,13.473,11111222 
WAVCIS,ioos:station:WAVCIS:CSI16:1,2010-02-03T14:30:00Z,29.4012,-89.0355,10.0,13.474,11111222 
WAVCIS,ioos:station:WAVCIS:CSI16:1,2010-02-03T14:45:00Z,29.4012,-89.0355,10.0,13.476,11111222 